Location: Voyageurs National Park
(48.5020°N, 92.9292°W)
Time: 20:51:33
(UTC-05:00)

PCSat - Visible Passes

Search period start: 28 June 2016 00:00
Search period end: 08 July 2016 00:00
Orbit: 785 x 795 km, 67.1° (Epoch: 27 June)

Date Brightness Start Highest point End Pass type
(mag) Time Alt. Az. Time Alt. Az. Time Alt. Az.
28 Jun 10.3 02:44:53 21° S 02:48:07 42° ESE 02:53:13 10° NE visible
28 Jun 10.5 04:26:29 10° WSW 04:31:34 40° NW 04:36:42 10° NNE visible
29 Jun 10.7 02:14:49 21° SSE 02:17:24 32° ESE 02:22:11 10° NE visible
29 Jun 10.2 03:55:32 11° WSW 04:00:37 50° NW 04:05:56 10° NNE visible
30 Jun 11.0 01:44:43 20° SE 01:46:44 24° ESE 01:51:02 10° ENE visible
30 Jun 9.8 03:25:25 16° SW 03:29:43 64° NW 03:35:08 10° NNE visible
01 Jul 11.3 01:14:34 16° SE 01:16:06 18° ESE 01:19:42 10° ENE visible
01 Jul 9.6 02:55:17 22° SW 02:58:50 82° NW 03:04:19 10° NNE visible
02 Jul 11.5 00:44:24 13° ESE 00:45:31 13° ESE 00:47:59 10° ENE visible
02 Jul 9.5 02:25:06 28° SSW 02:28:01 78° ESE 02:33:28 10° NE visible
02 Jul 11.2 04:07:29 10° W 04:12:00 26° NW 04:16:32 10° NNE visible
03 Jul 9.7 01:54:52 32° S 01:57:13 59° ESE 02:02:35 10° NE visible
03 Jul 11.0 03:36:10 10° WSW 03:40:58 31° NW 03:45:49 10° NNE visible
04 Jul 10.1 01:24:37 33° SSE 01:26:28 45° ESE 01:31:37 10° NE visible
04 Jul 10.7 03:05:18 12° WSW 03:09:58 38° NW 03:15:04 10° NNE visible
05 Jul 10.4 00:54:18 29° SE 00:55:45 34° ESE 01:00:36 10° NE visible
05 Jul 10.3 02:35:00 17° WSW 02:39:01 48° NW 02:44:17 10° NNE visible
05 Jul 11.9 04:20:30 10° WNW 04:23:47 16° NNW 04:27:04 10° NNE visible
06 Jul 10.7 00:23:56 24° SE 00:25:05 26° ESE 00:29:29 10° NE visible
06 Jul 9.9 02:04:38 22° SW 02:08:06 61° NW 02:13:31 10° NNE visible
06 Jul 11.8 03:48:55 10° WNW 03:52:38 18° NNW 03:56:21 10° NNE visible
06 Jul 11.0 23:53:32 18° ESE 23:54:27 19° ESE 23:58:11 10° ENE visible
07 Jul 9.6 01:34:13 27° SW 01:37:13 78° NW 01:42:42 10° NNE visible
07 Jul 11.7 03:17:25 10° W 03:21:30 21° NNW 03:25:38 10° NNE visible
07 Jul 11.3 23:23:04 14° ESE 23:23:50 14° ESE 23:26:35 10° ENE visible
